This demonstration page uses our WeatherBlox Daily Observations layout. Learn more.

Left ArrowRight Arrow

Hourly Observations for December 29, 2016

Temp ( °F °C ) Dew Point ( °F °C ) Humidity (%) Winds ( mph kmh ) Pressure ( in mb ) Visibility ( mi km ) Precip ( " mm )
12:51 am 00:51 Clear 46 7.8 41 5 83 83 E 7 11 30.23 1024 10 16 N/A
1:51 am 01:51 Clear 44 6.7 40 4.4 85 85 S 3 6 30.23 1024 10 16 N/A
2:51 am 02:51 Clear 42 5.6 39 3.9 89 89 N N/A 30.23 1024 10 16 N/A
3:51 am 03:51 Clear 42 5.6 39 3.9 89 89 NNW 3 6 30.23 1024 10 16 N/A
4:51 am 04:51 Clear 44 6.7 40 4.4 85 85 N N/A 30.23 1024 10 16 N/A
5:51 am 05:51 Clear 43 6.1 40 4.4 89 89 ENE 6 9 30.24 1024 10 16 N/A
6:51 am 06:51 Clear 43 6.1 40 4.4 89 89 ENE 5 7 30.25 1024 10 16 N/A
7:51 am 07:51 Sunny 43 6.1 39 3.9 86 86 SE 3 6 30.28 1025 10 16 N/A
8:51 am 08:51 Sunny 44 6.7 40 4.4 85 85 SE 6 9 30.31 1026 10 16 N/A
9:51 am 09:51 Sunny 48 8.9 39 3.9 71 71 SSE 12 19 30.33 1027 10 16 N/A
10:51 am 10:51 Sunny 53 11.7 39 3.9 59 59 SSE 8 13 30.33 1027 10 16 N/A
11:51 am 11:51 Sunny 57 13.9 32 undefined 39 39 SE 8 13 30.30 1026 10 16 N/A
12:51 pm 12:51 Sunny 58 14.4 34 1.1 41 41 ESE 9 15 30.28 1026 10 16 N/A
1:51 pm 13:51 Sunny 59 15 36 2.2 42 42 SE 9 15 30.27 1025 10 16 N/A
2:51 pm 14:51 Sunny 59 15 37 2.8 44 44 S 13 20 30.26 1025 10 16 N/A
3:51 pm 15:51 Sunny 57 13.9 36 2.2 45 45 S 16 26 30.27 1025 10 16 N/A
4:51 pm 16:51 Mostly Sunny 55 12.8 37 2.8 51 51 S 14 22 30.27 1025 10 16 N/A
5:51 pm 17:51 Clear with Light Rain 52 11.1 36 2.2 55 55 S 14 22 30.30 1026 10 16 N/A
6:51 pm 18:51 Mostly Clear 50 10 39 3.9 66 66 SE 12 19 30.32 1027 10 16 N/A
7:51 pm 19:51 Mostly Cloudy 51 10.6 35 1.7 54 54 SE 13 20 30.33 1027 10 16 0.03 0.76
8:51 pm 20:51 Mostly Cloudy with Light Rain 49 9.4 35 1.7 59 59 E 13 20 30.34 1028 10 16 N/A
9:51 pm 21:51 Cloudy 50 10 36 2.2 59 59 ESE 9 15 30.34 1027 10 16 N/A
10:51 pm 22:51 Cloudy 50 10 37 2.8 61 61 E 14 22 30.32 1027 10 16 N/A
11:51 pm 23:51 Cloudy 49 9.4 38 3.3 66 66 ESE 12 19 30.31 1026 10 16 N/A

Powered by AerisWeather